Terminal Aerodrome Forecast
Issued by NWS

Current Version | Previous Version | Graphics & Text | Print | Product List | Glossary On
Versions: 1 2 3 4 5 6 7 8 9 10 11 12 13 14 15 16 17 18
000
FTUS41 KRNK 221720
TAFLWB
TAF
KLWB 221720Z 2218/2318 34008KT P6SM OVC025
     FM230300 32005KT P6SM OVC015
     FM231300 30006KT P6SM OVC025
     FM231600 30008KT P6SM BKN035=

USA.gov is the U.S. government's official web portal to all federal, state and local government web resources and services.